Date String (YYYY-MM-DD hh:mm:ss) UTC,Instrument flags,absolute air pressure of the measurement (hPa),sample flow rate (lpm),inlet stack bypass flow (lpm),air temperature of the measurement (°C),ambient temperature measured by the external sensor (°C),aerosol sample conditioner tube jacket temperature (°C),OPC LED temperature (°C),internal box temperature (°C),relative humidity of the measurement (%),span deviation,mass concentration of particles derived from Lorenz-Mie calculation of OPC scattering (μg/m³),mass concentration of particles derived from Lorenz-Mie calculation of OPC scattering (μg/m³),mass concentration of particles derived from Lorenz-Mie calculation of OPC scattering (μg/m³)
DateTimeUTC,F1_M11,P_M11,Q1_M11,Q2_M11,T1_M11,T2_M11,T3_M11,T4_M11,T5_M11,U1_M11,ZSPAN_M11,X0_M11,X2_M11,X1_M11
2023-11-05 14:00:00,SystemResetWarning,0827.3,5.00,000.00,027.0,025.9,000.0,035.4,028.3,11.2,0000.0,0006.90,0004.39,0004.25
2023-11-05 14:01:00,SystemResetWarning,0827.4,4.99,000.00,027.0,025.9,000.0,035.4,028.4,11.2,0000.0,0007.36,0004.52,0004.37
2023-11-05 14:02:00,SystemResetWarning,0827.4,4.99,000.00,027.0,026.0,000.0,035.4,028.4,11.2,0000.0,0007.65,0004.66,0004.47
2023-11-05 14:03:00,SystemResetWarning,0827.3,5.00,000.00,027.0,026.0,000.0,035.4,028.5,11.2,0000.0,0008.28,0004.72,0004.52
2023-11-05 14:04:00,SystemResetWarning,0827.3,5.00,000.00,027.0,026.0,000.0,035.4,028.5,11.2,0000.0,0008.81,0004.72,0004.52
2023-11-05 14:05:00,SystemResetWarning,0827.3,4.99,000.00,027.0,026.0,000.0,035.4,028.4,11.2,0000.0,0008.83,0004.69,0004.47
2023-11-05 14:06:00,SystemResetWarning,0827.2,5.00,000.00,027.0,026.0,000.0,035.4,028.5,11.3,0000.0,0008.78,0004.63,0004.40
2023-11-05 14:07:00,SystemResetWarning,0827.2,5.00,000.00,027.0,026.0,000.0,035.4,028.5,11.3,0000.0,0008.76,0004.60,0004.37
2023-11-05 14:08:00,SystemResetWarning,0827.2,5.00,000.00,027.0,026.0,000.0,035.4,028.5,11.3,0000.0,0008.75,0004.58,0004.35
2023-11-05 14:09:00,SystemResetWarning,0827.2,5.01,000.00,027.0,026.0,000.0,035.4,028.5,11.3,0000.0,0008.71,0004.55,0004.32
2023-11-05 14:10:00,SystemResetWarning,0827.3,5.00,000.00,027.0,026.0,000.0,035.4,028.4,11.3,0000.0,0008.63,0004.48,0004.25
2023-11-05 14:11:00,SystemResetWarning,0827.3,5.00,000.00,027.0,026.0,000.0,035.4,028.4,11.5,0000.0,0008.57,0004.40,0004.15
2023-11-05 14:12:00,SystemResetWarning,0827.4,5.00,000.00,027.0,026.0,000.0,035.4,028.5,11.6,0000.0,0008.14,0004.25,0004.02
2023-11-05 14:13:00,SystemResetWarning,0827.3,4.99,000.00,027.1,026.0,000.0,035.4,028.5,11.5,0000.0,0007.83,0004.06,0003.85
2023-11-05 14:14:00,SystemResetWarning,0827.2,5.00,000.00,027.1,026.1,000.0,035.4,028.5,11.2,0000.0,0007.14,0003.89,0003.69
2023-11-05 14:15:00,SystemResetWarning,0827.1,5.01,000.00,027.1,026.1,000.0,035.4,028.6,11.2,0000.0,0006.20,0003.80,0003.60
2023-11-05 14:16:00,SystemResetWarning,0827.3,5.01,000.00,027.1,026.1,000.0,035.4,028.6,11.2,0000.0,0005.59,0003.70,0003.51
2023-11-05 14:17:00,SystemResetWarning,0827.3,4.99,000.00,027.1,026.1,000.0,035.4,028.6,11.3,0000.0,0005.36,0003.56,0003.39
2023-11-05 14:18:00,SystemResetWarning,0827.4,5.00,000.00,027.1,026.1,000.0,035.4,028.6,11.4,0000.0,0005.55,0003.38,0003.22
2023-11-05 14:19:00,SystemResetWarning,0827.4,5.00,000.00,027.1,026.1,000.0,035.4,028.5,11.4,0000.0,0005.39,0003.22,0003.02
2023-11-05 14:20:00,SystemResetWarning,0827.4,5.00,000.00,027.1,026.1,000.0,035.4,028.5,11.3,0000.0,0005.11,0003.00,0002.72
2023-11-05 14:21:00,SystemResetWarning,0827.4,5.00,000.00,027.1,026.1,000.0,035.5,028.5,11.3,0000.0,0004.29,0002.68,0002.43
2023-11-05 14:22:00,SystemResetWarning,0827.4,5.00,000.00,027.1,026.1,000.0,035.5,028.6,11.2,0000.0,0003.69,0002.44,0002.18
2023-11-05 14:23:00,SystemResetWarning,0827.4,5.01,000.00,027.1,026.1,000.0,035.5,028.6,11.3,0000.0,0003.51,0002.27,0002.02
2023-11-05 14:24:00,SystemResetWarning,0827.6,5.01,000.00,027.1,026.1,000.0,035.5,028.6,11.4,0000.0,0003.53,0002.22,0001.93
2023-11-05 14:25:00,SystemResetWarning,0827.5,5.00,000.00,027.1,026.1,000.0,035.5,028.5,11.2,0000.0,0003.47,0002.16,0001.86
2023-11-05 14:26:00,SystemResetWarning,0827.4,4.99,000.00,027.1,026.1,000.0,035.5,028.5,11.0,0000.0,0004.40,0002.07,0001.78
2023-11-05 14:27:00,SystemResetWarning,0827.3,4.99,000.00,027.1,026.1,000.0,035.5,028.5,11.1,0000.0,0004.48,0002.08,0001.80
2023-11-05 14:28:00,SystemResetWarning,0827.4,5.00,000.00,027.1,026.1,000.0,035.5,028.5,11.0,0000.0,0004.54,0002.11,0001.82
2023-11-05 14:29:00,SystemResetWarning,0827.4,5.01,000.00,027.1,026.1,000.0,035.5,028.6,11.1,0000.0,0004.17,0002.27,0001.99
2023-11-05 14:30:00,SystemResetWarning,0827.4,5.01,000.00,027.1,026.1,000.0,035.5,028.6,11.1,0000.0,0004.86,0002.42,0002.12
2023-11-05 14:31:00,SystemResetWarning,0827.4,5.01,000.00,027.1,026.2,000.0,035.5,028.6,11.3,0000.0,0005.12,0002.57,0002.25
2023-11-05 14:32:00,SystemResetWarning,0827.4,4.99,000.00,027.1,026.2,000.0,035.5,028.6,11.3,0000.0,0005.16,0002.59,0002.28
2023-11-05 14:33:00,SystemResetWarning,0827.4,4.99,000.00,027.1,026.2,000.0,035.5,028.6,11.2,0000.0,0005.11,0002.56,0002.27
2023-11-05 14:34:00,SystemResetWarning,0827.4,4.99,000.00,027.1,026.2,000.0,035.5,028.6,11.4,0000.0,0005.17,0002.55,0002.26
2023-11-05 14:35:00,SystemResetWarning,0827.4,5.01,000.00,027.1,026.2,000.0,035.5,028.6,11.5,0000.0,0005.04,0002.48,0002.24
2023-11-05 14:36:00,SystemResetWarning,0827.4,5.01,000.00,027.1,026.1,000.0,035.5,028.6,11.5,0000.0,0005.00,0002.47,0002.22
2023-11-05 14:37:00,SystemResetWarning,0827.4,5.01,000.00,027.1,026.1,000.0,035.5,028.6,11.5,0000.0,0003.89,0002.38,0002.12
2023-11-05 14:38:00,SystemResetWarning,0827.3,5.01,000.00,027.1,026.1,000.0,035.5,028.6,11.5,0000.0,0003.45,0002.16,0001.92
2023-11-05 14:39:00,SystemResetWarning,0827.3,4.99,000.00,027.1,026.1,000.0,035.5,028.6,11.5,0000.0,0003.27,0002.06,0001.83
2023-11-05 14:40:00,SystemResetWarning,0827.3,4.99,000.00,027.1,026.1,000.0,035.5,028.6,11.2,0000.0,0003.78,0001.92,0001.69
2023-11-05 14:41:00,SystemResetWarning,0827.3,5.00,000.00,027.1,026.1,000.0,035.5,028.6,11.1,0000.0,0003.48,0001.91,0001.72
2023-11-05 14:42:00,SystemResetWarning,0827.3,5.01,000.00,027.1,026.1,000.0,035.5,028.6,11.1,0000.0,0003.40,0001.98,0001.80
2023-11-05 14:43:00,SystemResetWarning,0827.4,5.00,000.00,027.1,026.1,000.0,035.5,028.6,11.1,0000.0,0003.70,0002.19,0001.98
2023-11-05 14:44:00,SystemResetWarning,0827.4,5.00,000.00,027.1,026.1,000.0,035.5,028.6,11.0,0000.0,0004.03,0002.45,0002.21
2023-11-05 14:45:00,SystemResetWarning,0827.4,5.00,000.00,027.1,026.1,000.0,035.5,028.6,10.9,0000.0,0004.40,0002.73,0002.46
2023-11-05 14:46:00,SystemResetWarning,0827.4,4.99,000.00,027.1,026.1,000.0,035.5,028.6,10.9,0000.0,0004.62,0002.98,0002.70
2023-11-05 14:47:00,SystemResetWarning,0827.4,5.00,000.00,027.1,026.1,000.0,035.5,028.6,11.0,0000.0,0004.90,0003.17,0002.93
2023-11-05 14:48:00,SystemResetWarning,0827.4,5.00,000.00,027.1,026.1,000.0,035.5,028.6,11.1,0000.0,0005.21,0003.29,0003.13
2023-11-05 14:49:00,SystemResetWarning,0827.3,5.00,000.00,027.1,026.1,000.0,035.5,028.6,11.1,0000.0,0005.82,0003.42,0003.23
2023-11-05 14:50:00,SystemResetWarning,0827.4,5.00,000.00,027.1,026.1,000.0,035.5,028.6,10.9,0000.0,0006.28,0003.55,0003.34
2023-11-05 14:51:00,SystemResetWarning,0827.4,4.99,000.00,027.1,026.1,000.0,035.5,028.6,10.9,0000.0,0006.05,0003.67,0003.45
2023-11-05 14:52:00,SystemResetWarning,0827.2,4.99,000.00,027.1,026.1,000.0,035.5,028.6,11.0,0000.0,0006.11,0003.71,0003.49
2023-11-05 14:53:00,SystemResetWarning,0827.2,5.00,000.00,027.1,026.1,000.0,035.5,028.6,10.9,0000.0,0007.18,0003.72,0003.49
2023-11-05 14:54:00,SystemResetWarning,0827.3,4.99,000.00,027.1,026.1,000.0,035.5,028.6,10.9,0000.0,0007.69,0003.72,0003.48
2023-11-05 14:55:00,SystemResetWarning,0827.4,5.00,000.00,027.1,026.1,000.0,035.5,028.5,10.8,0000.0,0007.66,0003.72,0003.49
2023-11-05 14:56:00,SystemResetWarning,0827.3,5.00,000.00,027.1,026.1,000.0,035.5,028.6,11.1,0000.0,0007.55,0003.69,0003.49
2023-11-05 14:57:00,SystemResetWarning,0827.3,5.00,000.00,027.1,026.2,000.0,035.5,028.6,11.3,0000.0,0007.85,0003.65,0003.44
2023-11-05 14:58:00,SystemResetWarning,0827.4,5.00,000.00,027.1,026.2,000.0,035.5,028.6,11.5,0000.0,0007.97,0003.54,0003.35
2023-11-05 14:59:00,SystemResetWarning,0827.3,5.01,000.00,027.1,026.1,000.0,035.5,028.6,11.5,0000.0,0007.85,0003.41,0003.25
